Погода в Нижнеленинском

Россия / Еврейская автономная область     47°57′43″N   132°40′01″E
темп.,
°C
ветер,
м/с
пор.,
м/с
влажн.,
%
обл.,
%
осадки,
мм/ч
давл.,
гПа
погр.,
м
13 апреля, вт
вт1301:00+5зсз3572100 0.5 1005327
04:00−1зсз4679100 0.6 1005395
07:00−2зсз5965100 0.1 1004561
10:00−2зсз71052100 0.1 1004825
13:00+1зсз81135100 0.0 10041364
16:00+2зсз9113326 0.0 10041985
19:00−1зсз71139100 0.0 10052464
22:00−3зсз7125158 0.0 10051286
14 апреля, ср
ср1401:00−3з712485 0.0 10051290
04:00−3з713492 0.0 10051295
07:00−4з613475 0.0 10061572
10:00−1зсз8113598 0.0 10072220
13:00+1зсз71129100 0.0 10062891
16:00+2сз61031100 0.0 10062503
19:00+1сз593612 0.0 10071845
22:00−2зсз23521 0.0 101058
15 апреля, чт
чт1501:00−3з24620 0.0 101186
04:00−3зюз23580 0.0 101258
07:00−3юз23540 0.0 101387
10:00+3юз34350 0.0 1014748
13:00+6ю22265 0.0 10131308
16:00+9ююв34245 0.0 10121596
19:00+8вюв3630100 0.0 1011315
22:00+6в51140100 0.0 1011420
16 апреля, пт
пт1601:00+5всв51141100 0.0 1010446
04:00+3всв4950100 0.0 1008315
07:00+3всв366198 0.0 1007130
10:00+10ююв7134995 0.0 10061568
13:00+12ююв91746100 0.0 10042414
16:00+9ю71273100 1.4 10031443
19:00+8ю51080100 2.3 1004958
22:00+6юв3589100 3.3 1006141
17 апреля, сб
сб1701:00+5ююв358839 0.7 1007148
04:00+3юв11913 0.7 100717
07:00
10:00+8св2257100 0.0 1010463
13:00+12св5541100 0.0 10081427
16:00+12св6840100 0.0 10072225
19:00+9ссв71262100 0.1 1006996
22:00+8с71462100 0.1 1006697